map of NVT home
NVT - Airport
Location
City:  Navegantes, Santa Catarina, Brazil
Name:Ministro Victor Konder International Airport
ICAO:SBNF
IATA:NVT

Details
Type:Airport (Aerodrome, Airfield)
Use:International (customs port of entry)
Latitude:2652'48"S (-26.879998)
Longitude:4839'05"W (-48.651389)
Datum:WGS 1984
Elevation:18 ft (5 m)
Variation:19.35W (WMM2015 magnetic declination)
-0.14 annual change
Runways:1
Longest:5581 × 148 ft (1701 × 45 m), paved

Time
Time Zone:UTC-3 (DST-2)
Local Time:

Weather
METAR:SBNF 281600Z 02012G22KT CAVOK 24/// Q1017
TAF:SBNF 281500Z 2818/2918 28005KT CAVOK TX25/2818Z TN14/2908Z
BECMG 2820/2822 03005KT
BECMG 2900/2902 27005KT
BECMG 2912/2914 16015G25KT 9999 SCT0 35
RMK PDJ

Related Locations
Nearby:
Farthest:KTD: 12365 mi / 19900 km
Kitadaito [Kitadaito Airport], Kitadaito Island, 47, JP

Find:

   beyond  
but within

Other Information
Maps:
NOTAMs:
Links:
Sources:

  
flag of Brazil
flag of Santa Catarina
  

Sectional Chart

Flight Planning
at skyvector.com

Satellite Image

Google Maps Satellite view

 

Copyright © 2004-2016 Karl L. Swartz. All rights reserved.
The Great Circle Mapper name and logo are trademarks of the Great Circle Mapper.
All other trademarks mentioned herein belong to their respective owners.
Please see credits for attibutions and further copyright information.

  Follow gcmap on Facebook Follow gcmap on Twitter Follow gcmap on Google+ GCmap on LinkedIn

hCard Microformat

Geo Microformat